Regional Weather Roundup
Issued by NWS Upton, NY

Current Version | Previous Version | Text Only | Print | Product List | Glossary On
Versions: 1 2 3 4 5 6 7 8 9 10 11 12 13 14 15 16 17 18 19 20 21 22 23 24 25 26 27 28 29 30 31 32 33 34 35 36 37 38 39 40 41 42 43 44 45 46 47 48 49 50
000 ASUS41 KOKX 211805 RWROKX REGIONAL WEATHER ROUNDUP NATIONAL WEATHER SERVICE NEW YORK NY 200 PM EDT SUN SEP 21 2014 NOTE: "FAIR" INDICATES FEW OR NO CLOUDS BELOW 12,000 FEET WITH NO SIGNIFICANT WEATHER AND/OR OBSTRUCTIONS TO VISIBILITY. NYZ071-072-176-178-NJZ106-104-211900- NEW YORK CITY METRO AREA CITY SKY/WX TMP DP RH WIND PRES REMARKS CENTRAL PARK CLOUDY 72 67 84 VRB5 29.77F HAZE LAGUARDIA APRT CLOUDY 73 67 81 VRB3 29.74F KENNEDY INTL CLOUDY 75 68 78 S5 29.76F NEWARK/LIBERTY CLOUDY 74 68 81 W6 29.75F BRNX BOT. GARD N/A 72 66 83 SW3 29.77F TETERBORO CLOUDY 74 66 76 W3 29.74F FOG $$ NYZ177-179-078>081-211900- LONG ISLAND NEW YORK CITY SKY/WX TMP DP RH WIND PRES REMARKS FARMINGDALE CLOUDY 76 69 79 CALM 29.75F ISLIP CLOUDY 74 69 85 S6 29.73F SHIRLEY CLOUDY 75 69 81 SE8 29.75F WESTHAMPTON CLOUDY 74 70 87 SE6 29.76F MONTAUK POINT N/A 75 71 87 VRB6 29.76F $$ NYZ052-065-067-211900- HUDSON VALLEY CITY SKY/WX TMP DP RH WIND PRES REMARKS WHITE PLAINS CLOUDY 72 68 87 CALM 29.75F NEWBURGH NOT AVBL MONTGOMERY PTSUNNY 79 64 60 SE5 29.73F POUGHKEEPSIE CLOUDY 74 66 76 SE6 29.74F ALBANY PTSUNNY 79 57 46 S13G24 29.71F $$ NJZ001-105-106-008-010-013-015-019>022-104-211900- NEW JERSEY CITY SKY/WX TMP DP RH WIND PRES REMARKS NEWARK/LIBERTY CLOUDY 74 68 81 W6 29.75F TETERBORO CLOUDY 74 66 76 W3 29.74F FOG CALDWELL CLOUDY 71 64 78 CALM 29.76F MORRISTOWN CLOUDY 73 66 78 S5 29.76F SOMERVILLE PTSUNNY 77 64 64 CALM 29.73F LINDEN CLOUDY 77 70 80 NW5 29.77F SUSSEX PTSUNNY 80 58 46 SW5 29.74F ANDOVER N/A 77 59 53 CALM 29.75F TRENTON CLOUDY 74 65 73 CALM 29.74F MILLVILLE CLOUDY 72 67 84 NW6 29.76F ATLANTIC CITY CLOUDY 76 69 79 NW8 29.73F WRIGHTSTOWN CLOUDY 73 68 83 NW7 29.73F TOMS RIVER CLOUDY 73 68 83 CALM 29.74F BELMAR CLOUDY 72 66 83 N3 29.74F $$ PAZ047>061-062-071-211900- EASTERN PENNSYLVANIA CITY SKY/WX TMP DP RH WIND PRES REMARKS PHILADELPHIA CLOUDY 76 66 71 SE7 29.74F ALLENTOWN MOSUNNY 74 59 59 S5 29.76F SCRANTON MOSUNNY 81 59 47 S8G16 29.71F $$ CTZ002-004>006-009-010-012-RIZ004-006-007-MAZ004-011-015-211900- SOUTHERN NEW ENGLAND IN CT CITY SKY/WX TMP DP RH WIND PRES REMARKS BRADLEY INTL CLOUDY 77 70 79 S5 29.74F HARTFORD CLOUDY 77 69 76 SE10G20 29.74F DANBURY LGT RAIN 74 69 85 SE6 29.76F WTRBRY/OXFORD CLOUDY 73 66 78 S9 29.78F BRIDGEPORT CLOUDY 74 70 87 CALM 29.75F MERIDEN CLOUDY 77 69 76 S8 29.75F NEW HAVEN CLOUDY 78 70 76 SE6 29.75F CHESTER MOCLDY 75 70 83 S7 29.78F GROTON CLOUDY 72 70 93 SE10 29.75F WILLIMANTIC CLOUDY 76 69 79 MISG 29.77F IN RI CITY SKY/WX TMP DP RH WIND PRES REMARKS PROVIDENCE CLOUDY 74 70 87 S9 29.78F BLOCK ISLAND CLOUDY 73 68 83 SE12 29.77F WESTERLY CLOUDY 74 69 85 E6 29.77F IN MA CITY SKY/WX TMP DP RH WIND PRES REMARKS BOSTON CLOUDY 79 67 66 S13 29.77F WORCESTER PTSUNNY 75 67 76 S9 29.79F WESTFIELD CLOUDY 73 68 84 S5 29.75F HAZE PROVINCETOWN CLOUDY 73 68 83 SE12 29.80F NANTUCKET CLOUDY 71 67 87 SE14 29.78F FOG $$ ANZ330-335-338-340-345-350-353-355-211900- COASTAL MARINE OBSERVATIONS STATION/POSITION TIME SKY/WX TEMP WIND PRES VSBY WAVE AIR SEA DIR/SP/G HT/PER (UTC) (F) (DEG/KT/KT) (MB) (MI) (FT/S) NY HARB ENTRANCE 1800 71 71 100/ 4/ 6 1007.7 4/ 7 4S FIRE IS 1800 70 N/A 4/ 8 20S FIRE ISLAND 1800 70 70 70/ 2/ 4 1007.5 4/ 8 23SW MTP 1800 N/A 5/ 7 HUDSON CANYON 1800 71 71 100/ 14/ 17 1006.2 5/ 8 EXECUTION ROCKS 1800 71 71 70/ 4/ 4 N/A WESTERN LI SOUND 1700 72 30/ 4/ 6 N/A 0 CENTRAL LI SOUND 1700 72 71 140/ 8/ 10 N/A 1 EASTERN LI SOUND 1700 70 68 130/ 8/ 12 N/A ROBBINS REEF 1800 71 300/ 5/ 5 1006.2 $$ >>>>>>>>>>>>>>>>>>>>>>>>>>>> KEY <<<<<<<<<<<<<<<<<<<<<<<<<<< > < > SKY/WX - SKY CONDITION/PRESENT WEATHER < > TMP - TEMPERATURE IN FAHRENHEIT < > DP - DEWPOINT IN FAHRENHEIT < > RH - RELATIVE HUMIDITY IN PERCENT < > WIND - DIRECTION AND SPEED IN MPH < > PRES - MEAN SEA LEVEL PRESSURE IN INCHES OF HG < > WCI - WIND CHILL INDEX < > VSB - VISIBILITY IN MILES < > HX - HEAT INDEX < > TC - TEMPERATURE IN CELSIUS < > VRB - VARIABLE WIND DIRECTION < > < >>>>>>>>>>>>>>>>>>>>>>>>>>>> KEY <<<<<<<<<<<<<<<<<<<<<<<<<<<

USA.gov is the U.S. government's official web portal to all federal, state and local government web resources and services.